Powrót do katalogu

COSMOS 2251 DEB

AktywnyLEO
NORAD 34642·DEBRIS·🇷🇺 Russia

Wystrzelony Jun 16, 1993 z Plesetsk Cosmodrome

Loading…

Następne Przeloty (najbliższe 24 godziny)

TLE

ŚwieżeSource: Space-Track

Epoka: Sep 14, 2026, 14:34 UTC

1 34642U 93036XP  26257.60736291  .00001732  00000-0  99421-3 0  9997
2 34642  74.0025 221.5518 0207567 338.2149 138.4444 13.99850232891525

Śledź COSMOS 2251 DEB w czasie rzeczywistym z AllMySat

Download on the App Store